[[{"header":{"parameterUnit":"m.s-1","parameterCategory":1,"la1":30.2991,"la2":30.254,"lo1":-89.0895,"lo2":-89.0444,"dy":0.0017,"dx":0.0017,"nx":28,"ny":28,"refTime":"2025-07-14T03:00:00:Z","depth":0,"parameterNumber":2,"parameterNumberName":"U-component_of_WINDS"},"data":[0,0,0,0,0,0,0,0,0,0,0,0,0,0,0,0,0,0,0,0,0,0,0,0,0,0,0,0,0,0,0,0,0,0,0,0,0,0,0,0,0,0,0,0,0,0,0,0,0,0,0,0,0,0,0,0,0,0,2.4349,2.435,0,2.443,2.4431,2.4432,2.4424,2.4423,2.4422,2.4421,2.4507,2.451,2.4514,0,0,0,0,0,0,0,0,0,0,0,0,0,2.4189,2.4192,2.4349,2.435,2.4351,2.443,2.4431,2.4432,2.4425,2.4423,2.4421,2.442,2.4506,2.451,2.4514,0,0,0,0,0,0,0,0,0,0,0,0,0,2.4263,2.4193,2.4349,2.4357,2.4358,2.443,2.4431,2.4432,2.4425,2.4423,2.4421,2.4419,2.4504,2.4509,2.4514,2.4584,0,0,2.453,2.4533,0,0,0,0,0,0,0,0,2.4259,2.4269,2.4355,2.4356,2.4358,2.4415,2.4406,2.4484,2.4425,2.44,2.4421,2.4418,2.4478,2.4485,2.4505,2.4588,2.4592,2.4531,2.4534,2.4536,2.4538,0,0,0,0,0,0,0,2.4254,2.4266,2.4381,2.4356,2.4358,2.4357,2.4365,2.4421,2.4449,2.4402,2.4401,2.4411,2.4479,2.45,2.4507,2.4593,2.4531,2.4535,2.4538,2.454,2.4736,2.4738,0,0,0,0,0,0,2.4247,2.4262,2.4379,2.4384,2.4303,2.4361,2.437,2.4399,2.4448,2.4453,2.4412,2.441,2.4492,2.4501,2.451,2.4593,2.4536,2.4541,2.4544,2.4734,2.4737,2.4739,0,0,0,0,0,0,2.4243,2.4257,2.4375,2.4323,2.4337,2.4366,2.4398,2.4401,2.4422,2.4456,2.4461,2.4429,2.4491,2.4502,2.4565,2.4596,2.4543,2.4548,2.4732,2.4735,2.4738,2.4761,0,0,0,0,0,0,2.4239,2.4256,2.4283,2.4323,2.434,2.4429,2.44,2.4404,2.4431,2.4429,2.4473,2.4478,2.449,2.4557,2.457,2.4602,2.4552,2.4729,2.4733,2.4737,2.4757,2.4764,2.477,0,0,0,0,0,2.4233,2.4287,2.4284,2.4298,2.4374,2.4431,2.4441,2.4452,2.4434,2.446,2.4482,2.4477,2.459,2.4564,2.4578,2.4612,2.4727,2.4732,2.4736,2.4755,2.4763,2.477,0,0,0,0,0,0,2.4251,2.4293,2.429,2.4358,2.4391,2.4429,2.4464,2.4461,2.4501,2.4497,2.4511,2.4521,2.4584,2.4605,2.4574,2.4681,2.4656,2.4664,2.4665,2.4673,2.468,2.4673,2.4556,0,0,0,0,0,2.4263,2.4305,2.4339,2.4397,2.4413,2.4436,2.4461,2.4467,2.4502,2.4516,2.4542,2.4576,2.4619,2.4648,2.469,2.4761,2.4769,2.4791,2.4797,2.4802,2.4809,2.4846,2.4855,2.4754,2.4754,2.4754,0,0,2.4288,2.4316,2.4342,2.4401,2.4427,2.447,2.4447,2.4495,2.4527,2.4523,2.4583,2.4603,2.4643,2.4709,2.474,2.4728,2.4838,2.4808,2.4812,2.4816,2.4851,2.4861,2.4869,2.4757,2.4757,2.4756,0,0,2.4356,2.4382,2.4431,2.4457,2.4496,2.451,2.4522,2.456,2.4573,2.4633,2.4631,2.467,2.4745,2.4772,2.4796,2.4872,2.4868,2.4885,2.4918,2.4954,2.4962,2.4969,2.4994,2.5003,2.4892,2.4892,2.4892,0,2.4382,2.4446,2.4457,2.4504,2.4529,2.4526,2.4576,2.4601,2.4652,2.467,2.4656,2.4748,2.4775,2.4847,2.4865,2.4885,2.4898,2.488,2.496,2.4967,2.4974,2.4998,2.5008,2.4893,2.4893,2.4893,2.4893,0,2.4476,2.4521,2.4556,2.4603,2.4633,2.4681,2.4699,2.4728,2.4731,2.4747,2.4807,2.4839,2.4886,2.4904,2.4909,2.4976,2.4967,2.4957,2.4932,2.4985,2.5008,2.5017,2.4896,2.4895,2.4895,2.4894,0,0,2.4558,2.4608,2.4621,2.4642,2.4684,2.4718,2.4766,2.4811,2.4835,2.487,2.491,2.4972,2.4962,2.4989,2.4996,2.5028,2.5083,2.5013,2.5015,2.5024,2.5158,2.5164,2.5174,2.5082,2.5083,2.5085,2.5154,0,2.4628,2.4711,2.4721,2.4795,2.4835,2.4833,2.4874,2.4904,2.492,2.4957,2.4975,2.5018,2.5003,2.5018,2.505,2.507,2.511,2.5066,2.5118,2.512,2.5106,2.5187,2.5194,2.5258,2.5163,2.5164,2.5165,0,2.4721,2.4756,2.4834,2.4868,2.4885,2.4922,2.4963,2.4998,2.5032,2.5042,2.5071,2.5074,2.5123,2.5096,2.5164,2.5133,2.5155,2.5168,2.5171,2.5175,2.5145,2.5192,2.5278,2.5287,2.518,2.5179,2.5178,0,2.4769,2.4837,2.4892,2.491,2.4952,2.4977,2.4996,2.5028,2.5054,2.509,2.5106,2.5148,2.5171,2.5203,2.5217,2.5197,2.5283,2.5258,2.5291,2.5291,2.5309,2.5307,2.5398,2.5326,2.5326,2.5325,2.5325,0,2.4846,2.4893,2.4914,2.4947,2.4999,2.5011,2.5062,2.5081,2.5109,2.5145,2.5147,2.5181,2.5198,2.5236,2.5247,2.53,2.5311,2.5319,2.5322,2.5318,2.5317,2.5332,2.5327,2.5328,2.5327,2.5327,2.5326,0,2.4909,2.4925,2.4984,2.5018,2.5028,2.5065,2.5094,2.5126,2.5141,2.5188,2.5199,2.5223,2.5267,2.5284,2.5338,2.5346,2.5406,2.5406,2.5394,2.5394,2.5426,2.5422,2.5528,2.5542,2.5462,2.5463,2.5463,0,2.4956,2.4991,2.5029,2.5053,2.5072,2.5111,2.5136,2.5149,2.5175,2.5216,2.5243,2.5286,2.5321,2.5391,2.5413,2.5454,2.5454,2.5488,2.546,2.5455,2.5452,2.5449,2.5452,2.5493,2.5494,2.5495,2.5495,0,2.5036,2.5042,2.5078,2.5116,2.5146,2.5178,2.5208,2.5228,2.5245,2.5275,2.5318,2.5345,2.5399,2.5442,2.5483,2.5503,2.5502,2.5504,2.5513,2.551,2.5501,2.5504,2.5406,2.5501,2.5501,2.55,2.55,2.55,2.5091,2.5122,2.5153,2.5192,2.5216,2.5244,2.5275,2.5293,2.533,2.5373,2.5379,2.5425,2.5457,2.5513,2.5534,2.5571,2.5562,2.5576,2.5579,2.5582,2.5583,2.5496,2.5579,2.5579,2.5578,2.5578,2.5578,0,2.517,2.5189,2.5226,2.5267,2.5298,2.5293,2.5326,2.5353,2.5393,2.5422,2.5456,2.5505,2.5546,2.5571,2.5612,2.5636,2.5637,2.5647,2.5644,2.5648,2.559,2.5577,2.5645,2.5645,2.5645,2.5645,2.5645,2.5645,2.5215,2.5266,2.5275,2.5338,2.5357,2.5401,2.542,2.5445,2.5469,2.5523,2.5556,2.5572,2.5599,2.5642,2.5679,2.5685,2.5699,2.571,2.5715,2.566,2.5653,2.5646,2.5633,2.5713,2.5713,2.577,2.5771,2.5771]},{"header":{"parameterUnit":"m.s-1","parameterCategory":1,"la1":30.2991,"la2":30.254,"lo1":-89.0895,"lo2":-89.0444,"dy":0.0017,"dx":0.0017,"nx":28,"ny":28,"refTime":"2025-07-14T03:00:00:Z","depth":0,"parameterNumber":3,"parameterNumberName":"V-component_of_WINDS"},"data":[0,0,0,0,0,0,0,0,0,0,0,0,0,0,0,0,0,0,0,0,0,0,0,0,0,0,0,0,0,0,0,0,0,0,0,0,0,0,0,0,0,0,0,0,0,0,0,0,0,0,0,0,0,0,0,0,0,0,2.836,2.836,0,2.8398,2.8398,2.8399,2.8412,2.8411,2.8411,2.8411,2.8446,2.8447,2.8448,0,0,0,0,0,0,0,0,0,0,0,0,0,2.8294,2.8295,2.836,2.836,2.8361,2.8398,2.8398,2.8399,2.8412,2.8411,2.8411,2.8411,2.8446,2.8447,2.8448,0,0,0,0,0,0,0,0,0,0,0,0,0,2.8326,2.8295,2.836,2.8372,2.8373,2.8398,2.8398,2.8399,2.8412,2.8411,2.8411,2.8411,2.8445,2.8447,2.8449,2.8463,0,0,2.8453,2.8454,0,0,0,0,0,0,0,0,2.8324,2.8328,2.837,2.8371,2.8373,2.84,2.8388,2.842,2.8412,2.8397,2.8411,2.8411,2.8431,2.8433,2.8441,2.8464,2.8466,2.8454,2.8455,2.8455,2.8456,0,0,0,0,0,0,0,2.8322,2.8327,2.8375,2.837,2.8372,2.8374,2.8378,2.8394,2.8414,2.8398,2.8399,2.8404,2.8431,2.8439,2.8442,2.8466,2.8454,2.8455,2.8456,2.8457,2.8501,2.8501,0,0,0,0,0,0,2.8318,2.8325,2.8374,2.8376,2.8348,2.8375,2.838,2.8391,2.8414,2.8418,2.8404,2.8404,2.8437,2.844,2.8443,2.846,2.8455,2.8457,2.8458,2.8501,2.8501,2.8501,0,0,0,0,0,0,2.8317,2.8322,2.8372,2.8351,2.8357,2.8376,2.8389,2.8392,2.84,2.8419,2.8422,2.8409,2.8437,2.8441,2.8458,2.8462,2.8457,2.8459,2.85,2.8501,2.8501,2.8495,0,0,0,0,0,0,2.8315,2.8322,2.8329,2.8351,2.8358,2.8387,2.8389,2.8393,2.8403,2.8404,2.8424,2.8427,2.8437,2.8455,2.8459,2.8464,2.846,2.85,2.8501,2.8501,2.8495,2.8495,2.8495,0,0,0,0,0,2.8312,2.8325,2.8329,2.8335,2.8368,2.8388,2.8392,2.8404,2.8404,2.841,2.8421,2.8426,2.846,2.8457,2.8461,2.8466,2.85,2.85,2.8501,2.8495,2.8495,2.8495,0,0,0,0,0,0,2.8302,2.8328,2.8333,2.8354,2.8368,2.839,2.8398,2.8404,2.8418,2.8418,2.8432,2.8436,2.8451,2.846,2.8456,2.848,2.848,2.8482,2.8474,2.8474,2.8474,2.8472,2.8461,0,0,0,0,0,2.8302,2.8318,2.8339,2.8355,2.8362,2.8379,2.8388,2.8396,2.8412,2.8418,2.8431,2.8444,2.8458,2.8466,2.848,2.8496,2.85,2.8502,2.8502,2.8502,2.8503,2.851,2.8511,2.8503,2.8503,2.8503,0,0,2.8303,2.8319,2.8328,2.8353,2.8366,2.838,2.8384,2.8399,2.841,2.842,2.8436,2.8446,2.8462,2.8478,2.8485,2.8486,2.8506,2.8502,2.8502,2.8503,2.8511,2.8512,2.8512,2.8503,2.8503,2.8503,0,0,2.8311,2.8325,2.8339,2.8352,2.8371,2.8381,2.8385,2.8405,2.8412,2.8429,2.8437,2.8448,2.8472,2.8482,2.8491,2.8501,2.8505,2.8505,2.8505,2.8513,2.8513,2.8514,2.8517,2.8518,2.8506,2.8506,2.8506,0,2.8308,2.8332,2.8345,2.836,2.837,2.8381,2.8394,2.8405,2.8427,2.8433,2.8434,2.8463,2.8474,2.8492,2.8494,2.8501,2.8504,2.8503,2.8512,2.8513,2.8514,2.8517,2.8518,2.8505,2.8505,2.8505,2.8506,0,2.8327,2.8343,2.8352,2.8374,2.8385,2.8399,2.8413,2.8422,2.8429,2.8439,2.8455,2.8469,2.8485,2.849,2.8496,2.8508,2.8508,2.851,2.851,2.8514,2.8517,2.8518,2.8505,2.8505,2.8505,2.8505,0,0,2.8331,2.8359,2.8362,2.8372,2.8393,2.8405,2.8418,2.8435,2.8442,2.8456,2.8466,2.8486,2.8488,2.8497,2.8504,2.8511,2.8516,2.8512,2.8513,2.8512,2.8529,2.8527,2.8528,2.852,2.852,2.852,2.8528,0,2.8341,2.8367,2.8379,2.8399,2.8413,2.8422,2.8433,2.8446,2.8456,2.8467,2.8477,2.849,2.8492,2.8498,2.8504,2.8514,2.852,2.8514,2.8528,2.8529,2.8524,2.853,2.8528,2.8535,2.8529,2.8529,2.8529,0,2.8357,2.8372,2.8394,2.8412,2.8418,2.8428,2.8444,2.8455,2.8469,2.8475,2.8485,2.8492,2.8505,2.8504,2.8521,2.8516,2.8522,2.8528,2.8528,2.853,2.8529,2.8531,2.8537,2.8538,2.8531,2.8531,2.8531,0,2.8356,2.8382,2.8398,2.8405,2.8427,2.8434,2.8443,2.8457,2.8466,2.8479,2.8484,2.8498,2.8506,2.8515,2.8525,2.8524,2.854,2.854,2.8544,2.8544,2.8548,2.8547,2.8554,2.8552,2.8552,2.8552,2.8552,0,2.8366,2.8379,2.8397,2.8407,2.8421,2.8434,2.8446,2.8456,2.8468,2.8478,2.8487,2.8496,2.8509,2.8519,2.8526,2.8538,2.8542,2.8546,2.8548,2.8545,2.8544,2.8549,2.8549,2.8552,2.8552,2.8552,2.8552,0,2.8368,2.8381,2.8399,2.8418,2.8423,2.8432,2.8448,2.8456,2.8466,2.8479,2.8482,2.8496,2.8509,2.852,2.8536,2.8541,2.8553,2.8555,2.8549,2.855,2.8553,2.8552,2.8563,2.8565,2.8561,2.8561,2.8561,0,2.8373,2.8383,2.8403,2.8412,2.8421,2.8434,2.8443,2.8455,2.8464,2.848,2.8486,2.85,2.8511,2.853,2.8541,2.8553,2.8556,2.8558,2.8557,2.8554,2.8555,2.8554,2.8555,2.8558,2.8558,2.8558,2.8558,0,2.8381,2.8387,2.8401,2.8416,2.8427,2.8439,2.8451,2.8457,2.8471,2.848,2.8494,2.8503,2.8519,2.8532,2.8545,2.8553,2.8557,2.8559,2.856,2.8558,2.8553,2.8555,2.8548,2.8558,2.8558,2.8558,2.8558,2.8558,2.8384,2.8393,2.8409,2.8423,2.8434,2.8445,2.8454,2.8464,2.8476,2.8492,2.8497,2.8511,2.8523,2.8541,2.8549,2.8558,2.8559,2.8561,2.8562,2.8562,2.8562,2.8552,2.8561,2.8561,2.8561,2.8561,2.8561,0,2.8392,2.8402,2.8415,2.8433,2.8444,2.8448,2.8462,2.847,2.8482,2.8494,2.8505,2.8519,2.8531,2.8543,2.8555,2.856,2.8563,2.8563,2.8563,2.8564,2.8561,2.8558,2.8561,2.8561,2.8561,2.8561,2.8561,2.8561,2.8398,2.8413,2.842,2.8439,2.8449,2.8463,2.8471,2.848,2.849,2.8506,2.8516,2.8524,2.8535,2.8548,2.8559,2.8561,2.8565,2.8565,2.8568,2.8565,2.8565,2.8564,2.8562,2.8566,2.8566,2.8571,2.8571,2.8571]}]]